This is the latest recevied weather packets stored in our database for station/object N8AMF. If no packets are shown the sender has not sent any weather packets the latest 10 day(s).
| Time | Temp. | Humidity | Pressure | Rain* | Wind** | Luminosity | Snow |
|---|---|---|---|---|---|---|---|
| 1778101087 | 12.22° C | 58% | 1011.5 hPa | 0 mm | - | 247 W/m² | - |
| 1778100782 | 12.22° C | 59% | 1011.5 hPa | 0 mm | - | 308 W/m² | - |
| 1778100478 | 12.22° C | 60% | 1011.4 hPa | 0 mm | - | 443 W/m² | - |
| 1778100177 | 12.22° C | 61% | 1011.4 hPa | 0 mm | - | 353 W/m² | - |
| 1778099874 | 12.22° C | 62% | 1011.3 hPa | 0 mm | - | 389 W/m² | - |
| 1778099571 | 12.78° C | 59% | 1011.2 hPa | 0 mm | - | 385 W/m² | - |
| 1778099268 | 12.78° C | 58% | 1011.4 hPa | 0 mm | - | 719 W/m² | - |
| 1778098964 | 11.67° C | 60% | 1011.4 hPa | 0 mm | - | 530 W/m² | - |
| 1778098661 | 11.67° C | 62% | 1011.3 hPa | 0 mm | - | 276 W/m² | - |
| 1778098358 | 11.67° C | 60% | 1011.5 hPa | 0 mm | - | 214 W/m² | - |
| 1778098055 | 12.22° C | 61% | 1011.6 hPa | 0 mm | - | 223 W/m² | - |
| 1778097752 | 12.22° C | 58% | 1011.5 hPa | 0 mm | - | 257 W/m² | - |
| 1778097448 | 12.22° C | 54% | 1011.4 hPa | 0 mm | - | 282 W/m² | - |
| 1778097145 | 12.22° C | 57% | 1011.6 hPa | 0 mm | - | 354 W/m² | - |
| 1778096842 | 12.22° C | 51% | 1011.3 hPa | 0 mm | - | 261 W/m² | - |
| 1778096538 | 12.78° C | 51% | 1011.4 hPa | 0 mm | - | 306 W/m² | - |
| 1778096236 | 12.22° C | 50% | 1011.6 hPa | 0 mm | - | 321 W/m² | - |
| 1778095933 | 12.78° C | 51% | 1011.5 hPa | 0 mm | - | 272 W/m² | - |
| 1778095629 | 12.78° C | 50% | 1011.4 hPa | 0 mm | - | 349 W/m² | - |
| 1778095327 | 13.33° C | 50% | 1011.3 hPa | 0 mm | - | 386 W/m² | - |
| 1778095023 | 13.89° C | 48% | 1011.2 hPa | 0 mm | - | 709 W/m² | - |
| 1778094719 | 13.89° C | 46% | 1011.3 hPa | 0 mm | - | 937 W/m² | - |
| 1778094417 | 13.33° C | 52% | 1011.5 hPa | 0 mm | - | 1214 W/m² | - |
| 1778094113 | 13.33° C | 55% | 1011.5 hPa | 0 mm | - | 546 W/m² | - |
| 1778093810 | 12.78° C | 56% | 1011.6 hPa | 0 mm | - | 501 W/m² | - |
* Rain latest hour (hover to see other rain measurements)
** Current wind speed in m/s (hover to see current wind gust speed)